| time (UTC) | temp F | wind direction | speed knots | gust knots | rain 1hr in | rain 24hr in | rain mn in | humidity % | barometer mb |
| 20260507231555 | 54 | 323 | 0.9 | 4.3 | 0.00 | 0.00 | 0.00 | 77 | 1015.1 |
| 20260507230101 | 54 | 18 | 0.9 | 3.5 | 0.00 | 0.00 | 0.00 | 80 | 1015.3 |
| 20260507224550 | 54 | 358 | 0.0 | 0.9 | 0.00 | 0.00 | 0.00 | 80 | 1015.3 |
| 20260507223047 | 54 | 338 | 0.0 | 4.3 | 0.00 | 0.00 | 0.00 | 78 | 1015.3 |
| 20260507221547 | 55 | 301 | 0.0 | 5.2 | 0.00 | 0.00 | 0.00 | 76 | 1015.4 |
| 20260507220044 | 55 | 316 | 0.9 | 3.5 | 0.00 | 0.00 | 0.00 | 75 | 1015.4 |
| 20260507214604 | 56 | 268 | 0.9 | 5.2 | 0.00 | 0.00 | 0.00 | 74 | 1015.3 |
| 20260507213048 | 55 | 278 | 0.0 | 2.6 | 0.00 | 0.00 | 0.00 | 77 | 1015.1 |
| 20260507211546 | 55 | 283 | 0.0 | 1.7 | 0.00 | 0.00 | 0.00 | 76 | 1015.2 |
| 20260507210051 | 56 | 41 | 0.9 | 5.2 | 0.00 | 0.00 | 0.00 | 74 | 1014.9 |
| 20260507204540 | 56 | 353 | 0.9 | 3.5 | 0.00 | 0.00 | 0.00 | 75 | 1015.0 |
| 20260507203048 | 56 | 344 | 2.6 | 6.1 | 0.00 | 0.00 | 0.00 | 77 | 1014.9 |
| 20260507201543 | 55 | 330 | 0.0 | 0.0 | 0.00 | 0.00 | 0.00 | 85 | 1014.8 |
| 20260507200039 | 55 | 20 | 0.0 | 0.0 | 0.00 | 0.00 | 0.00 | 85 | 1014.8 |
| 20260507194605 | 55 | 357 | 0.0 | 2.6 | 0.00 | 0.00 | 0.00 | 83 | 1014.8 |
| 20260507193035 | 55 | 11 | 0.0 | 4.3 | 0.00 | 0.00 | 0.00 | 82 | 1014.7 |
| 20260507191537 | 56 | 321 | 0.9 | 3.5 | 0.00 | 0.00 | 0.00 | 84 | 1014.6 |
| 20260507190033 | 57 | 207 | 0.0 | 0.0 | 0.00 | 0.00 | 0.00 | 85 | 1014.3 |
| 20260507184534 | 57 | 349 | 0.0 | 0.0 | 0.00 | 0.00 | 0.00 | 82 | 1014.3 |
| 20260507183035 | 58 | 352 | 0.0 | 0.0 | 0.00 | 0.00 | 0.00 | 78 | 1014.0 |
| 20260507181529 | 59 | 339 | 0.0 | 1.7 | 0.00 | 0.00 | 0.00 | 78 | 1014.0 |
| 20260507180031 | 60 | 347 | 0.9 | 2.6 | 0.00 | 0.00 | 0.00 | 75 | 1014.1 |
| 20260507174536 | 62 | 56 | 0.0 | 0.0 | 0.00 | 0.00 | 0.00 | 74 | 1013.9 |
| 20260507173035 | 62 | 98 | 0.0 | 2.6 | 0.00 | 0.00 | 0.00 | 75 | 1013.7 |
| 20260507171527 | 62 | 12 | 0.9 | 2.6 | 0.00 | 0.00 | 0.00 | 74 | 1013.7 |
| 20260507170027 | 62 | 231 | 0.0 | 4.3 | 0.00 | 0.00 | 0.00 | 74 | 1013.8 |
| 20260507164526 | 62 | 152 | 1.7 | 4.3 | 0.00 | 0.00 | 0.00 | 71 | 1013.9 |
| 20260507163026 | 63 | 135 | 1.7 | 4.3 | 0.00 | 0.00 | 0.00 | 69 | 1013.9 |
| 20260507161531 | 64 | 118 | 1.7 | 4.3 | 0.00 | 0.00 | 0.00 | 68 | 1013.7 |
| 20260507160026 | 63 | 12 | 1.7 | 5.2 | 0.00 | 0.00 | 0.00 | 68 | 1013.7 |
| 20260507154531 | 62 | 133 | 3.5 | 7.8 | 0.00 | 0.00 | 0.00 | 70 | 1013.7 |
| 20260507153036 | 63 | 148 | 1.7 | 8.7 | 0.00 | 0.00 | 0.00 | 69 | 1013.6 |
| 20260507151524 | 64 | 122 | 1.7 | 5.2 | 0.00 | 0.00 | 0.00 | 69 | 1013.6 |
| 20260507150026 | 62 | 326 | 3.5 | 8.7 | 0.00 | 0.00 | 0.00 | 73 | 1013.7 |
| 20260507144521 | 62 | 198 | 3.5 | 10.4 | 0.00 | 0.00 | 0.00 | 74 | 1013.9 |
| 20260507143024 | 63 | 99 | 5.2 | 13.0 | 0.00 | 0.00 | 0.00 | 72 | 1013.8 |
| 20260507141520 | 64 | 188 | 3.5 | 11.3 | 0.00 | 0.00 | 0.00 | 68 | 1013.8 |
| 20260507140018 | 65 | 107 | 0.9 | 7.8 | 0.00 | 0.00 | 0.00 | 64 | 1013.9 |
| 20260507134518 | 64 | 92 | 4.3 | 7.8 | 0.00 | 0.00 | 0.00 | 61 | 1014.0 |
| 20260507133019 | 64 | 152 | 2.6 | 7.8 | 0.00 | 0.00 | 0.00 | 65 | 1014.2 |
| 20260507131519 | 64 | 148 | 3.5 | 7.8 | 0.00 | 0.00 | 0.00 | 62 | 1014.2 |
| 20260507130027 | 65 | 148 | 4.3 | 11.3 | 0.00 | 0.00 | 0.00 | 61 | 1014.4 |
| 20260507124520 | 65 | 136 | 2.6 | 10.4 | 0.00 | 0.00 | 0.00 | 63 | 1014.2 |
| 20260507123013 | 64 | 160 | 1.7 | 10.4 | 0.00 | 0.00 | 0.00 | 64 | 1014.0 |
| 20260507121511 | 64 | 79 | 3.5 | 8.7 | 0.00 | 0.00 | 0.00 | 64 | 1014.0 |
| 20260507120019 | 64 | 186 | 4.3 | 13.0 | 0.00 | 0.00 | 0.00 | 65 | 1013.9 |
| 20260507114510 | 63 | 153 | 6.1 | 9.6 | 0.00 | 0.00 | 0.00 | 68 | 1013.7 |
| 20260507113009 | 64 | 283 | 3.5 | 12.2 | 0.00 | 0.00 | 0.00 | 70 | 1013.8 |
| 20260507111507 | 63 | 135 | 2.6 | 9.6 | 0.00 | 0.00 | 0.00 | 72 | 1013.9 |
| 20260507110008 | 63 | 130 | 5.2 | 10.4 | 0.00 | 0.00 | 0.00 | 73 | 1014.0 |
| 20260507104506 | 63 | 129 | 4.3 | 10.4 | 0.00 | 0.00 | 0.00 | 75 | 1014.1 |
| 20260507103015 | 63 | 146 | 1.7 | 7.8 | 0.00 | 0.00 | 0.00 | 76 | 1014.1 |
| 20260507101506 | 62 | 214 | 2.6 | 8.7 | 0.00 | 0.00 | 0.00 | 77 | 1014.2 |
| 20260507100005 | 63 | 139 | 1.7 | 6.1 | 0.00 | 0.00 | 0.00 | 75 | 1014.2 |
| 20260507094502 | 63 | 147 | 0.0 | 5.2 | 0.00 | 0.00 | 0.00 | 75 | 1014.2 |
| 20260507093113 | 63 | 254 | 0.0 | 4.3 | 0.00 | 0.00 | 0.00 | 76 | 1014.1 |
| 20260507091559 | 62 | 132 | 2.6 | 8.7 | 0.00 | 0.00 | 0.00 | 76 | 1014.0 |
| 20260507090058 | 62 | 93 | 2.6 | 11.3 | 0.00 | 0.00 | 0.00 | 76 | 1014.0 |
| 20260507084556 | 62 | 98 | 1.7 | 8.7 | 0.00 | 0.00 | 0.00 | 73 | 1013.9 |
| 20260507083055 | 61 | 199 | 2.6 | 6.1 | 0.00 | 0.00 | 0.00 | 73 | 1013.7 |
| 20260507081554 | 61 | 176 | 1.7 | 5.2 | 0.00 | 0.00 | 0.00 | 71 | 1013.8 |
| 20260507080107 | 61 | 136 | 0.0 | 4.3 | 0.00 | 0.00 | 0.00 | 68 | 1013.7 |
| 20260507074553 | 60 | 132 | 2.6 | 6.1 | 0.00 | 0.00 | 0.00 | 64 | 1013.8 |
| 20260507073052 | 60 | 87 | 1.7 | 4.3 | 0.00 | 0.00 | 0.00 | 66 | 1013.7 |
| 20260507071607 | 60 | 108 | 0.0 | 5.2 | 0.00 | 0.00 | 0.00 | 63 | 1013.6 |
| 20260507070051 | 60 | 120 | 0.9 | 3.5 | 0.00 | 0.00 | 0.00 | 64 | 1013.3 |
| 20260507064549 | 60 | 136 | 0.9 | 2.6 | 0.00 | 0.04 | 0.00 | 60 | 1013.2 |
| 20260507063047 | 60 | 115 | 2.6 | 4.3 | 0.00 | 0.04 | 0.00 | 64 | 1013.2 |
| 20260507061543 | 61 | 127 | 0.0 | 0.0 | 0.00 | 0.04 | 0.00 | 65 | 1012.8 |
| 20260507060039 | 58 | 16 | 0.0 | 0.0 | 0.00 | 0.04 | 0.00 | 67 | 1012.8 |
| 20260507054535 | 58 | 18 | 0.0 | 0.0 | 0.00 | 0.04 | 0.00 | 66 | 1012.5 |
| 20260507053052 | 57 | 25 | 0.0 | 2.6 | 0.00 | 0.04 | 0.00 | 67 | 1012.5 |
| 20260507051538 | 56 | 347 | 0.0 | 4.3 | 0.00 | 0.04 | 0.00 | 66 | 1012.2 |
| 20260507050032 | 55 | 30 | 2.6 | 7.0 | 0.00 | 0.04 | 0.00 | 66 | 1012.1 |
| 20260507044527 | 54 | 5 | 0.9 | 6.1 | 0.00 | 0.04 | 0.00 | 66 | 1012.0 |
| 20260507043025 | 53 | 328 | 0.9 | 4.3 | 0.00 | 0.04 | 0.00 | 67 | 1011.9 |
| 20260507041524 | 53 | 297 | 0.9 | 2.6 | 0.00 | 0.04 | 0.00 | 67 | 1011.8 |
| 20260507040025 | 53 | 342 | 0.0 | 2.6 | 0.00 | 0.04 | 0.00 | 66 | 1011.7 |
| 20260507034532 | 54 | 347 | 0.9 | 2.6 | 0.00 | 0.14 | 0.00 | 66 | 1011.7 |
| 20260507033033 | 53 | 6 | 0.9 | 3.5 | 0.00 | 0.14 | 0.00 | 66 | 1011.7 |
| 20260507031517 | 54 | 307 | 0.9 | 6.1 | 0.00 | 0.14 | 0.00 | 66 | 1011.6 |
| 20260507030020 | 54 | 309 | 2.6 | 7.0 | 0.00 | 0.14 | 0.00 | 66 | 1011.6 |
| 20260507024515 | 54 | 300 | 0.0 | 1.7 | 0.00 | 0.37 | 0.00 | 67 | 1011.7 |
| 20260507023023 | 54 | 302 | 0.0 | 3.5 | 0.00 | 0.37 | 0.00 | 66 | 1011.7 |
| 20260507021512 | 54 | 5 | 0.9 | 6.1 | 0.00 | 0.37 | 0.00 | 67 | 1011.6 |
| 20260507020018 | 54 | 13 | 2.6 | 7.0 | 0.00 | 0.37 | 0.00 | 68 | 1011.4 |
| 20260507014513 | 53 | 340 | 0.0 | 2.6 | 0.00 | 0.39 | 0.00 | 71 | 1011.5 |
| 20260507013009 | 54 | 354 | 1.7 | 3.5 | 0.00 | 0.39 | 0.00 | 70 | 1011.4 |
| 20260507011507 | 55 | 45 | 0.0 | 1.7 | 0.00 | 0.39 | 0.00 | 70 | 1011.4 |
| 20260507010010 | 54 | 322 | 0.0 | 2.6 | 0.00 | 0.39 | 0.00 | 71 | 1011.5 |
| 20260507004505 | 55 | 327 | 0.0 | 2.6 | 0.00 | 0.41 | 0.00 | 72 | 1011.5 |
| 20260507003004 | 55 | 224 | 0.0 | 4.3 | 0.00 | 0.41 | 0.00 | 72 | 1011.4 |
| 20260507001605 | 55 | 355 | 1.7 | 4.3 | 0.00 | 0.41 | 0.00 | 72 | 1011.4 |
| 20260507000002 | 55 | 350 | 0.0 | 2.6 | 0.00 | 0.48 | 0.00 | 72 | 1011.4 |
| 20260506234600 | 56 | 218 | 0.0 | 0.9 | 0.00 | 0.48 | 0.00 | 71 | 1011.5 |
| 20260506233100 | 56 | 345 | 0.0 | 3.5 | 0.00 | 0.48 | 0.00 | 70 | 1011.3 |